Location: Chippewa Lake
(41.0698°N, 81.9010°W)
Time: 21:20:13
(UTC+00:00)

SJ 16-02 - Pass Details

Date: 09 May 2021
Orbit: 606 x 616 km, 75.0° (Epoch: 17 June)

Event Time Altitude Azimuth Distance (km) Brightness Sun altitude
Exits shadow 03:05:59 42° 62° (ENE) 883 2.0 -23.3°
Drops below altitude 10° 03:09:19 10° 28° (NNE) 1,986 4.3 -23.7°
Sets 03:11:37 0° 24° (NNE) 2,895 5.2 -24.0°
